This is the latest recevied weather packets stored in our database for station/object W1SCW. If no packets are shown the sender has not sent any weather packets the latest 10 day(s).
| Time | Temp. | Humidity | Pressure | Rain* | Wind** | Luminosity | Snow |
|---|---|---|---|---|---|---|---|
| 1776958713 | 26.11° C | 74% | 1012.1 hPa | 0 mm | - | 506 W/m² | - |
| 1776958413 | 25.56° C | 76% | 1012.3 hPa | 0 mm | - | 258 W/m² | - |
| 1776958108 | 25.56° C | 76% | 1012 hPa | 0 mm | - | 374 W/m² | - |
| 1776957802 | 25.56° C | 76% | 1012 hPa | 0 mm | - | 351 W/m² | - |
| 1776957499 | 25.56° C | 78% | 1012 hPa | 0 mm | - | 341 W/m² | - |
| 1776957194 | 25.56° C | 78% | 1012 hPa | 0 mm | - | 251 W/m² | - |
| 1776956888 | 25° C | 80% | 1011.8 hPa | 0 mm | - | 615 W/m² | - |
| 1776956587 | 25° C | 80% | 1011.6 hPa | 0 mm | - | 171 W/m² | - |
| 1776956287 | 25.56° C | 79% | 1011.6 hPa | 0 mm | - | 205 W/m² | - |
| 1776955982 | 24.44° C | 82% | 1011.9 hPa | 0 mm | - | 616 W/m² | - |
| 1776955678 | 24.44° C | 82% | 1011.7 hPa | 0 mm | - | 128 W/m² | - |
| 1776955376 | 25° C | 82% | 1011.4 hPa | 0 mm | - | 163 W/m² | - |
| 1776955075 | 25.56° C | 81% | 1011.8 hPa | 0 mm | - | 589 W/m² | - |
| 1776954774 | 25° C | 82% | 1011.6 hPa | 0 mm | - | 551 W/m² | - |
| 1776954471 | 24.44° C | 84% | 1011.9 hPa | 0 mm | - | 358 W/m² | - |
| 1776954167 | 23.89° C | 86% | 1011.8 hPa | 0 mm | - | 272 W/m² | - |
| 1776953867 | 23.33° C | 87% | 1011.9 hPa | 0 mm | - | 148 W/m² | - |
| 1776953563 | 23.33° C | 87% | 1012 hPa | 0 mm | - | 96 W/m² | - |
| 1776953262 | 23.89° C | 87% | 1012 hPa | 0 mm | - | 184 W/m² | - |
| 1776952961 | 23.89° C | 88% | 1012 hPa | 0 mm | - | 237 W/m² | - |
| 1776952658 | 23.33° C | 89% | 1012 hPa | 0 mm | - | 169 W/m² | - |
| 1776952354 | 23.33° C | 89% | 1011.9 hPa | 0 mm | - | 191 W/m² | - |
| 1776952052 | 23.33° C | 89% | 1012 hPa | 0 mm | - | 119 W/m² | - |
| 1776951748 | 23.89° C | 88% | 1011.9 hPa | 0 mm | - | 185 W/m² | - |
| 1776951444 | 23.33° C | 90% | 1012 hPa | 0 mm | - | 335 W/m² | - |
* Rain latest hour (hover to see other rain measurements)
** Current wind speed in m/s (hover to see current wind gust speed)